KLM29D EPPO-EHAM

Flight info

Callsign KLM29D
Flight time N/A
Altitude 38000
Route ELSUP Z181 XIGRI DCT HLZ DCT NORKU
Aircraft A20N/M-SDE2E3FGHIRWXY/LB1

Departure

Time 2026-05-01 15:14
Airport Poznań-Ławica Airport (EPPO)

Arrival

Time N/A
Airport Amsterdam Airport Schiphol (EHAM)
Time Latitude Longitude Altitude Speed Heading
2026-05-01 14:53 52.41583 16.82989 302 ft 0 kts 192°
2026-05-01 15:07 52.41586 16.82990 302 ft 3 kts 192°
2026-05-01 15:07 52.41606 16.82997 302 ft 3 kts 195°
2026-05-01 15:07 52.41625 16.83009 301 ft 3 kts 190°
2026-05-01 15:08 52.41645 16.83002 301 ft 3 kts 128°
2026-05-01 15:08 52.41650 16.82971 302 ft 3 kts 86°
2026-05-01 15:08 52.41650 16.82949 302 ft 1 kts 98°
2026-05-01 15:08 52.41649 16.82960 302 ft 1 kts 98°
2026-05-01 15:09 52.41649 16.82968 302 ft 0 kts 97°
2026-05-01 15:10 52.41646 16.82992 303 ft 6 kts 100°
2026-05-01 15:11 52.41634 16.83095 301 ft 12 kts 101°
2026-05-01 15:11 52.41582 16.83458 303 ft 20 kts 102°
2026-05-01 15:11 52.41567 16.83709 300 ft 24 kts 92°
2026-05-01 15:12 52.41586 16.83903 299 ft 15 kts 49°
2026-05-01 15:12 52.41794 16.84071 297 ft 18 kts 359°
2026-05-01 15:12 52.41847 16.83958 300 ft 11 kts 287°
2026-05-01 15:13 52.41972 16.83315 303 ft 93 kts 287°
2026-05-01 15:14 52.42567 16.80305 818 ft 154 kts 289°
2026-05-01 15:14 52.42851 16.78671 1642 ft 145 kts 289°
2026-05-01 15:14 52.43432 16.75331 2847 ft 170 kts 289°
2026-05-01 15:15 52.44215 16.71249 3997 ft 209 kts 290°
2026-05-01 15:15 52.45214 16.66177 5396 ft 256 kts 290°
2026-05-01 15:16 52.46344 16.60363 7413 ft 274 kts 290°
2026-05-01 15:16 52.47530 16.54260 9514 ft 287 kts 291°
2026-05-01 15:17 52.48609 16.47697 11106 ft 320 kts 280°
2026-05-01 15:18 52.49225 16.35845 13251 ft 360 kts 278°
2026-05-01 15:18 52.49441 16.31714 14137 ft 367 kts 278°
2026-05-01 15:19 52.50121 16.18949 16603 ft 382 kts 278°
2026-05-01 15:19 52.50587 16.10144 18217 ft 392 kts 278°
2026-05-01 15:19 52.50822 16.05654 18955 ft 397 kts 278°
2026-05-01 15:20 52.51294 15.96520 20358 ft 405 kts 278°
2026-05-01 15:20 52.51531 15.91880 21056 ft 409 kts 278°
2026-05-01 15:20 52.51768 15.87200 21733 ft 414 kts 278°
2026-05-01 15:21 52.52007 15.82459 22414 ft 418 kts 278°
2026-05-01 15:21 52.52245 15.77679 23090 ft 423 kts 278°
2026-05-01 15:21 52.52484 15.72844 23756 ft 427 kts 278°
2026-05-01 15:21 52.52724 15.67955 24336 ft 431 kts 278°
2026-05-01 15:22 52.53199 15.58143 25504 ft 436 kts 278°
2026-05-01 15:22 52.53437 15.53157 26054 ft 439 kts 277°
2026-05-01 15:22 52.53674 15.48142 26600 ft 442 kts 277°
2026-05-01 15:23 52.53907 15.43084 27135 ft 446 kts 276°
2026-05-01 15:23 52.53905 15.37958 27646 ft 451 kts 269°
2026-05-01 15:23 52.53716 15.32800 28146 ft 454 kts 269°
2026-05-01 15:23 52.53534 15.27609 28636 ft 457 kts 269°
2026-05-01 15:24 52.53353 15.22382 29106 ft 460 kts 269°
2026-05-01 15:24 52.53169 15.17113 29562 ft 463 kts 269°
2026-05-01 15:24 52.52981 15.11821 30004 ft 466 kts 269°
2026-05-01 15:24 52.52788 15.06494 30426 ft 469 kts 269°
2026-05-01 15:25 52.52593 15.01147 30833 ft 470 kts 269°
2026-05-01 15:25 52.52395 14.95780 31236 ft 472 kts 269°
2026-05-01 15:25 52.52196 14.90388 31687 ft 473 kts 269°
2026-05-01 15:25 52.51996 14.85015 32234 ft 470 kts 269°
2026-05-01 15:26 52.51794 14.79664 32804 ft 468 kts 269°
2026-05-01 15:26 52.51592 14.74348 33358 ft 466 kts 269°
2026-05-01 15:26 52.51387 14.69057 33900 ft 463 kts 269°
2026-05-01 15:26 52.51181 14.63789 34416 ft 461 kts 268°
2026-05-01 15:27 52.50983 14.58550 34859 ft 459 kts 269°
2026-05-01 15:27 52.50846 14.53332 35279 ft 457 kts 270°
2026-05-01 15:27 52.50739 14.48129 35667 ft 455 kts 270°
2026-05-01 15:28 52.50522 14.37767 36434 ft 453 kts 270°
2026-05-01 15:28 52.50403 14.32607 36796 ft 452 kts 270°
2026-05-01 15:28 52.50277 14.27459 37152 ft 451 kts 270°
2026-05-01 15:29 52.50015 14.17198 37842 ft 449 kts 270°
2026-05-01 15:29 52.49879 14.12075 38156 ft 448 kts 270°
2026-05-01 15:29 52.49604 14.01877 38345 ft 446 kts 270°
2026-05-01 15:30 52.49368 13.93403 38347 ft 446 kts 270°
2026-05-01 15:31 52.48419 13.61218 38346 ft 445 kts 269°
2026-05-01 15:32 52.47775 13.40936 38350 ft 445 kts 269°
2026-05-01 15:34 52.46745 13.10537 38347 ft 444 kts 268°